CW4549 Weather Reports


time (UTC)temp
C
wind
direction
speed
KPH
gust
KPH
rain 1hr
cm
rain 24hr
cm
rain mn
cm
humidity
%
barometer
mb
20260505124516 15 180 1.6 8.0 0.00 0.23 0.23 100 1002.1
20260505123018 15 0.0 8.0 0.00 0.23 0.23 100 1002.5
20260505121516 15 0.0 4.8 0.00 0.23 0.23 100 1003.1
20260505120017 15 0.0 3.2 0.00 0.23 0.23 100 1003.1
20260505114516 14 0.0 1.6 0.00 0.23 0.23 100 1003.0
20260505113017 14 0.0 11.3 0.00 0.23 0.23 99 1002.8
20260505111517 14 0.0 3.2 0.00 0.23 0.23 99 1002.2
20260505101518 15 0.0 1.6 0.23 0.23 0.23 95 1003.1
20260505100018 15 0.0 4.8 0.13 0.13 0.13 92 1003.4
20260505094518 15 0.0 1.6 0.05 0.05 0.05 89 1003.4
20260505093036 16 0.0 1.6 0.03 0.03 0.03 82 1003.2
20260505091538 17 0.0 1.6 0.00 0.00 0.00 71 1002.5
20260505090016 18 0.0 3.2 0.00 0.00 0.00 62 1001.9
20260505084516 18 0.0 4.8 0.00 0.00 0.00 61 1001.5
20260505083038 18 0.0 4.8 0.00 0.00 0.00 61 1001.3
20260505081516 18 0.0 4.8 0.00 0.00 0.00 61 1001.0
20260505080036 18 0.0 3.2 0.00 0.00 0.00 60 1000.9
20260505074556 18 0.0 8.0 0.00 0.00 0.00 61 1001.0
20260505073038 18 0.0 8.0 0.00 0.00 0.00 58 1000.9
20260505071516 19 158 1.6 12.9 0.00 0.00 0.00 57 1000.4
20260505070016 19 180 3.2 16.1 0.00 0.00 0.00 57 1000.5
20260505064518 19 158 3.2 17.7 0.00 0.00 0.00 56 1000.5
20260505063018 20 158 4.8 19.3 0.00 0.00 0.00 55 1000.5
20260505061516 20 180 3.2 19.3 0.00 0.00 0.00 55 1000.5
20260505060017 20 158 1.6 17.7 0.00 0.00 0.00 55 1000.5
20260505054516 20 180 1.6 16.1 0.00 0.00 0.00 55 1000.2
20260505053018 20 180 4.8 22.5 0.00 0.00 0.00 54 1000.0
20260505051537 20 180 1.6 9.7 0.00 0.00 0.00 54 999.8
20260505041517 20 180 1.6 14.5 0.00 0.00 0.00 56 1000.5
20260505040016 20 158 3.2 16.1 0.00 0.00 0.00 56 1000.7
20260505034517 20 180 1.6 12.9 0.00 0.00 0.00 57 1000.7
20260505033017 20 0.0 12.9 0.00 0.00 0.00 57 1000.7
20260505031517 20 0.0 8.0 0.00 0.00 0.00 57 1000.5
20260505030019 20 0.0 8.0 0.00 0.00 0.00 57 1000.5
20260505024537 20 225 1.6 8.0 0.00 0.00 0.00 56 1000.3
20260505023101 20 180 1.6 11.3 0.00 0.00 0.00 56 1000.2
20260505021519 20 180 1.6 12.9 0.00 0.00 0.00 57 999.9
20260505020017 20 0.0 4.8 0.00 0.00 0.00 57 999.7
20260505014519 20 0.0 4.8 0.00 0.00 0.00 56 999.3
20260505013015 21 0.0 4.8 0.00 0.00 0.00 55 999.3
20260505011517 21 0.0 6.4 0.00 0.00 0.00 55 999.2
20260505010015 21 0.0 4.8 0.00 0.00 0.00 53 999.3
20260505004515 22 0.0 4.8 0.00 0.00 0.00 52 999.3
20260505003017 22 248 1.6 12.9 0.00 0.00 0.00 50 999.2
20260505001515 22 0.0 8.0 0.00 0.00 0.00 49 999.3
20260505000017 23 180 1.6 11.3 0.00 0.00 0.00 48 999.4
20260504234515 23 180 1.6 16.1 0.00 0.00 0.00 47 999.7
20260504233017 23 180 1.6 20.9 0.00 0.00 0.00 46 1000.0
20260504231516 23 180 1.6 16.1 0.00 0.00 0.00 43 1000.1
20260504230015 23 158 4.8 22.5 0.00 0.00 0.00 41 1000.3
20260504224535 24 158 4.8 24.1 0.00 0.00 0.00 41 1000.3
20260504223016 24 158 6.4 29.0 0.00 0.00 0.00 42 1000.3
20260504221516 24 180 3.2 17.7 0.00 0.00 0.00 46 1000.3
20260504220017 24 0.0 4.8 0.00 0.00 0.00 49 1000.3
20260504214537 23 0.0 6.4 0.00 0.00 0.00 51 1000.5
20260504213015 24 0.0 4.8 0.00 0.00 0.00 50 1000.7
20260504211517 24 158 1.6 17.7 0.00 0.00 0.00 48 1001.0
20260504210017 24 158 1.6 16.1 0.00 0.00 0.00 46 1001.1
20260504204536 24 0.0 17.7 0.00 0.00 0.00 46 1001.1
20260504203017 24 158 3.2 22.5 0.00 0.00 0.00 46 1001.2
20260504201517 23 158 1.6 12.9 0.00 0.00 0.00 49 1001.5
20260504200016 23 158 3.2 12.9 0.00 0.00 0.00 53 1001.7
20260504194516 23 158 1.6 11.3 0.00 0.00 0.00 50 1001.9
20260504193036 23 158 1.6 11.3 0.00 0.00 0.00 53 1002.1
20260504191515 22 135 1.6 19.3 0.00 0.00 0.00 56 1002.5
20260504190016 22 158 1.6 11.3 0.00 0.00 0.00 58 1002.5
20260504184516 21 0.0 12.9 0.00 0.00 0.00 60 1002.9
20260504183016 21 158 1.6 19.3 0.00 0.00 0.00 58 1002.8
20260504181516 21 158 3.2 17.7 0.00 0.00 0.00 58 1002.7
20260504180015 20 158 1.6 17.7 0.00 0.00 0.00 59 1002.5
20260504174516 21 158 4.8 19.3 0.00 0.00 0.00 56 1002.4
20260504173016 21 158 4.8 20.9 0.00 0.00 0.00 54 1002.2
20260504171519 21 158 3.2 19.3 0.00 0.00 0.00 57 1002.3